"Pseudo-MPEC" for X68473

Created 2020 May 26 13:07:27 UT using Find_Orb

Click here for an explanation of pseudo-MPECs

 
 Astrometry: 
     X68473   C2020 05 11l2q'5MH7Astrometry1redacted;CoyB,pD.#c`!'L-6N6aclickD29
     X68473   C2020 05 11j/?6Ajrhere1=@H(=q(9#x^1UGL1)R?Z/Z$Sn:CfKa`si$jK=G#!D29
     X68473   C2020 05 1133#9D,E%%K9]DmQ^6r/QXfor\A\LFTMJ/`]fS'rxexplanationCD29

Station data:
(D29) Purple Mountain Observatory, XuYi Station  (N32.734366 E118.463900)
   China.  Observers H. B. Zhao, B. Li, G. Zhaori, R. Q. Hong, L. F. Hu.
   Measurers H. B. Zhao, B. Li. H. Lu, G. Zhaori. 1.04-m f/1.8 Schmidt + CCD.

Orbital elements:  X68473
   Perihelion 2020 Apr 5.483621 +/- 53.5 TT = 11:36:24 (JD 2458944.983621)
Epoch 2020 May 12.0 TT = JDT 2458981.5   Earth MOID: 0.7930   AutoNEOCP
M   6.50580401 +/- 25               (J2000 ecliptic)
n   0.17816125 +/- 0.246            Peri.   76.94698 +/- 100
a   3.12795529 +/- 2.87             Node   123.43005 +/- 48
e   0.4517071 +/- 0.253             Incl.   15.68186 +/- 8
P   5.53                   H 19.6   G  0.15   U 11.8  SR
q 1.71503560 +/- 0.555    Q 4.54087499 +/- 79.1
From 3 observations 2020 May 11 (40.7 min); mean residual 0".12
Residuals in arcseconds: 
200511 D29  .09-  .07+    200511 D29  .19+  .14-    200511 D29  .09-  .07+    

Ephemerides (geocentric):
Date (UTC) HH   RA              Dec         delta   r     elong  mag " sig PA
---- -- -- --  -------------   -----------  ------ ------ -----  --- ---- ---
2020 05 26 13  14 14 37.896   +18 20 31.18  .93604 1.7726 130.8 21.9  29d  16
2020 05 26 14  14 14 38.172   +18 19 50.31  .93629 1.7726 130.8 21.9  29d  16
2020 05 26 15  14 14 38.451   +18 19 09.41  .93655 1.7727 130.8 21.9  29d  16
2020 05 26 16  14 14 38.732   +18 18 28.48  .93680 1.7728 130.7 21.9  29d  16
2020 05 26 17  14 14 39.017   +18 17 47.52  .93706 1.7729 130.7 21.9  29d  16
2020 05 26 18  14 14 39.304   +18 17 06.53  .93731 1.7730 130.7 21.9  30d  16
2020 05 26 19  14 14 39.594   +18 16 25.50  .93757 1.7731 130.7 21.9  30d  16
2020 05 26 20  14 14 39.886   +18 15 44.45  .93783 1.7732 130.7 21.9  30d  16
2020 05 26 21  14 14 40.182   +18 15 03.36  .93808 1.7733 130.6 21.9  30d  17
2020 05 26 22  14 14 40.480   +18 14 22.24  .93834 1.7734 130.6 21.9  30d  17
2020 05 26 23  14 14 40.781   +18 13 41.09  .93860 1.7735 130.6 21.9  30d  17
2020 05 27 00  14 14 41.085   +18 12 59.91  .93885 1.7736 130.6 21.9  30d  17
2020 05 27 01  14 14 41.391   +18 12 18.70  .93911 1.7737 130.5 21.9  30d  17
2020 05 27 02  14 14 41.701   +18 11 37.45  .93937 1.7738 130.5 21.9  30d  17
2020 05 27 03  14 14 42.013   +18 10 56.18  .93963 1.7738 130.5 21.9  30d  17
2020 05 27 04  14 14 42.328   +18 10 14.88  .93988 1.7739 130.5 21.9  30d  17
2020 05 27 05  14 14 42.646   +18 09 33.54  .94014 1.7740 130.5 21.9  30d  18
2020 05 27 06  14 14 42.966   +18 08 52.18  .94040 1.7741 130.4 21.9  30d  18
2020 05 27 07  14 14 43.290   +18 08 10.78  .94066 1.7742 130.4 21.9  30d  18
2020 05 27 08  14 14 43.616   +18 07 29.35  .94092 1.7743 130.4 21.9  30d  18
2020 05 27 09  14 14 43.945   +18 06 47.89  .94118 1.7744 130.4 21.9  30d  18
2020 05 27 10  14 14 44.276   +18 06 06.40  .94144 1.7745 130.4 21.9  31d  19
2020 05 27 11  14 14 44.611   +18 05 24.89  .94170 1.7746 130.3 21.9  31d  19
2020 05 27 12  14 14 44.948   +18 04 43.34  .94196 1.7747 130.3 21.9  31d  19
2020 05 27 13  14 14 45.288   +18 04 01.76  .94222 1.7748 130.3 21.9  31d  19
2020 05 27 14  14 14 45.631   +18 03 20.15  .94248 1.7749 130.3 21.9  31d  19
2020 05 27 15  14 14 45.977   +18 02 38.51  .94274 1.7750 130.3 21.9  32d  19
2020 05 27 16  14 14 46.325   +18 01 56.84  .94300 1.7750 130.2 21.9  32d  19
2020 05 27 17  14 14 46.677   +18 01 15.14  .94326 1.7751 130.2 21.9  32d  19
2020 05 27 18  14 14 47.031   +18 00 33.40  .94352 1.7752 130.2 21.9  32d  19
2020 05 27 19  14 14 47.387   +17 59 51.64  .94378 1.7753 130.2 21.9  32d  19
2020 05 27 20  14 14 47.747   +17 59 09.85  .94404 1.7754 130.2 21.9  33d  19
2020 05 27 21  14 14 48.110   +17 58 28.03  .94430 1.7755 130.1 21.9  33d  19
2020 05 27 22  14 14 48.475   +17 57 46.18  .94457 1.7756 130.1 21.9  33d  19
2020 05 27 23  14 14 48.843   +17 57 04.30  .94483 1.7757 130.1 21.9  33d  19
2020 05 28 00  14 14 49.214   +17 56 22.39  .94509 1.7758 130.1 21.9  33d  19
2020 05 28 01  14 14 49.587   +17 55 40.45  .94535 1.7759 130.1 21.9  33d  18
2020 05 28 02  14 14 49.964   +17 54 58.49  .94561 1.7760 130.0 22.0  33d  18
2020 05 28 03  14 14 50.343   +17 54 16.49  .94588 1.7761 130.0 22.0  33d  18
2020 05 28 04  14 14 50.725   +17 53 34.46  .94614 1.7762 130.0 22.0  33d  18
2020 05 28 05  14 14 51.110   +17 52 52.40  .94640 1.7763 130.0 22.0  33d  18
2020 05 28 06  14 14 51.498   +17 52 10.31  .94667 1.7764 129.9 22.0  33d  18
2020 05 28 07  14 14 51.888   +17 51 28.20  .94693 1.7764 129.9 22.0  33d  18
2020 05 28 08  14 14 52.281   +17 50 46.05  .94720 1.7765 129.9 22.0  33d  18
2020 05 28 09  14 14 52.677   +17 50 03.88  .94746 1.7766 129.9 22.0  34d  18
2020 05 28 10  14 14 53.076   +17 49 21.68  .94772 1.7767 129.9 22.0  34d  18
2020 05 28 11  14 14 53.478   +17 48 39.44  .94799 1.7768 129.8 22.0  34d  18
2020 05 28 12  14 14 53.882   +17 47 57.18  .94825 1.7769 129.8 22.0  34d  18